Current Version              Previous Version:    01  02  03  04  05  06  07  08  09  10  11  12  13  14  15  16  17  18  19  20  21  22  23  24  25  26  27  28  29  30  
   31  32  33  34  35  36  37  38  39  40  41  42  43  44  45  46  47  48  49  50  51  52  53  54  55  56  57  58  59  60  

[Printable]
665
ASUS44 KFWD 191415
RWRTX
NORTH TEXAS HOURLY WEATHER ROUNDUP
NATIONAL WEATHER SERVICE FORT WORTH TX
900 AM CDT FRI SEP 19 2014

NOTE: "FAIR" INDICATES FEW OR NO CLOUDS BELOW 12,000 FEET WITH NO
SIGNIFICANT WEATHER AND/OR OBSTRUCTIONS TO VISIBILITY.

TXZ118-119-191500-
DALLAS/FORT WORTH METROPLEX

CITY           SKY/WX    TMP DP  RH WIND       PRES   REMARKS
DFW AIRPORT    PTSUNNY   74  67  78 E5        29.96R
DALLAS LOVE    CLOUDY    73  69  87 SE6       29.96R
FTW MEACHAM    PTSUNNY   73  67  81 E8        29.96R
DAL-EXECUTIVE  CLOUDY    72  69  90 E7        29.96R FOG
FTW-ALLIANCE   MOSUNNY   73  67  81 E6        29.95R
FTW-NAS-JRB    CLOUDY    76  66  71 VRB3      30.00R
FTW-SPINKS     FOG       70  70 100 CALM      29.97R VSB 3/4
ARLINGTON      CLOUDY    73  69  87 E6        29.96R
GRAND PRAIRIE  CLOUDY    72  72 100 MISG        N/A
ADDISON        PTSUNNY   72  68  88 E6        29.96S FOG
MESQUITE       CLOUDY    72  70  94 CALM      29.96R
LANCASTER      CLOUDY    71  68  90 E5        29.97R
$$

TXZ091>094-102>105-117-120-121-131>134-191500-
NORTH CENTRAL TEXAS

CITY           SKY/WX    TMP DP  RH WIND       PRES   REMARKS
SHRMAN/DENISON SUNNY     72  67  87 E6        29.99R
GAINESVILLE    MOSUNNY   71  68  90 E8        30.00R
BOWIE          MOSUNNY   70  68  92 SE6       29.98R
BRIDGEPORT     CLOUDY    70  70 100 SE3       29.98R FOG
DECATUR        SUNNY     71  69  93 SE9       29.98R
DENTON         SUNNY     73  67  81 E6        29.96R
MCKINNEY       CLOUDY    70  69  97 E7        29.97R FOG
GREENVILLE     FOG       70  68  94 E5        29.97S VSB 1/4
ROCKWALL       CLOUDY    70  70  99 E7        29.96R FOG
TERRELL        CLOUDY    71  70  96 E7        29.97R
WAXAHACHIE     CLOUDY    70  69  97 E6        29.97R FOG
CLEBURNE       CLOUDY    70  70 100 E7        29.98R FOG
GRANBURY       CLOUDY    70  68  93 CALM      29.98R FOG
$$

TXZ083>090-098>101-113>116-127>130-139>142-154-155-191500-
WESTERN NORTH TEXAS

CITY           SKY/WX    TMP DP  RH WIND       PRES   REMARKS
WICHITA FALLS  SUNNY     71  70  96 E5        29.96R FOG
WF-KICKAPOO    SUNNY     73  70  89 SE3       29.97S
VERNON         CLOUDY    71  69  94 SE5       29.99R VSB<1/4
ABILENE        CLOUDY    70  67  90 E6        29.99R
ABILENE-DYESS  CLOUDY    70  64  79 E5        29.98R
BRECKENRIDGE   CLOUDY    72  71  96 SE3       29.97R
GRAHAM         CLOUDY    72  67  87 E6        29.96R
MINERAL WELLS  SUNNY     73  67  81 E5        29.95R
STEPHENVILLE   MOSUNNY   73  68  86 E3        29.99R
COMANCHE       CLOUDY    71  71 100 CALM      29.97R
BROWNWOOD      CLOUDY    72  70  94 CALM      29.97R
COLEMAN        CLOUDY    71  69  92 E3        29.98R
$$

TXZ143>147-156>162-174-175-191500-
CENTRAL TEXAS

CITY           SKY/WX    TMP DP  RH WIND       PRES   REMARKS
WACO           FOG       71  70  96 CALM      29.95R VSB 3/4
WACO-TSTC      CLOUDY    72  72 100 CALM      29.95R FOG
WACO-MCGREGOR  CLOUDY    72  66  83 NE5       29.96R VSB 1/4
HILLSBORO      PTSUNNY   73  71  92 E9        29.95R
CORSICANA      LGT RAIN  73  71  93 E7        29.97R FOG
MEXIA          CLOUDY    72  71  99 E6        29.94R FOG
HEARNE         CLOUDY    75  73  92 E6        29.93S
CAMERON        CLOUDY    74  73  99 E6        29.93R FOG
TEMPLE         CLOUDY    72  68  88 NE6       29.94R
KILLEEN        CLOUDY    73  72  94 NE7       29.93R FOG
KILLEEN-SKYLRK CLOUDY    72  66  83 E7        29.94R VSB 3/4
FORT HOOD      CLOUDY    74  71  91 NE3       29.95R
GATESVILLE     CLOUDY    72  72 100 E5        29.97R FOG
HAMILTON       CLOUDY    72  72 100 E6        29.98R FOG
LAMPASAS       FOG       72  71  97 E8        29.95R VSB 1
$$

TXZ095>097-106>112-122>126-135>138-148>153-164>167-191500-
EAST TEXAS

CITY           SKY/WX    TMP DP  RH WIND       PRES   REMARKS
PARIS          CLOUDY    72  64  78 E9        29.99S
SULPHUR SPRNGS MOSUNNY   72  70  93 E8        30.00R
MOUNT PLEASANT CLOUDY    73  72  96 NE5       29.99S
GILMER         FOG       72  72 100 E3        29.99R VSB 1/2
MINEOLA        MOSUNNY   70  70 100 CALM      29.98S
TYLER          SUNNY     72  69  90 NE6       29.97R
LONGVIEW       SUNNY     74  69  85 CALM      29.96S
MARSHALL       CLOUDY    73  71  93 CALM      29.99R VSB 1
ATHENS         CLOUDY    72  68  88 CALM      29.96R
PALESTINE      CLOUDY    74  72  92 CALM      29.96R
JACKSONVILLE   CLOUDY    72  69  92 NE6       29.99R
HENDERSON      CLOUDY    73  69  86 CALM      29.97S
NACOGDOCHES    PTSUNNY   73  70  88 E7        29.96R
LUFKIN         SUNNY     78  72  81 E6        29.94S
$$

SUPPLEMENTAL OBSERVATIONS (CENTRAL)

CITY           SKY/WX    TMP DP  RH WIND       PRES   REMARKS
LAKE TEXOMA      N/A     70  66  88 E2          N/A
CADDO GRASSLND   N/A     72  68  88 E3          N/A
PAT MAYSE LAKE   N/A     72  70  94 NE3         N/A
ATHENS           N/A     73  70  88 E5          N/A
PALESTINE        N/A     73  68  83 E2          N/A
LAKE LIMESTONE   N/A     73  70  88 E8          N/A
MCGREGOR         N/A     72  70  94 NE5         N/A
TEMPLE           N/A     72  70  94 NE7         N/A
$$

SUPPLEMENTAL OBSERVATIONS (WEST)

CITY           SKY/WX    TMP DP  RH WIND       PRES   REMARKS
MILLERS CREEK    N/A     72  68  88 S6          N/A
POSSUM KINGDOM   N/A     72  66  83 SE7         N/A
LBJ GRASSLAND    N/A     73  68  83 E6          N/A
GRANBURY         N/A     70  66  88 E5          N/A
COMANCHE         N/A     72  70  94 E3          N/A
HAMBY            N/A     72  68  88 SE5         N/A
COLORADO BEND    N/A     72  70  94 E5          N/A
$$

SUPPLEMENTAL OBSERVATIONS (EAST)

CITY           SKY/WX    TMP DP  RH WIND       PRES   REMARKS
CLARKSVILLE      N/A     72  68  88 E3          N/A
TEXARKANA        N/A     70  66  88 NE5         N/A
LINDEN           N/A     72  70  94 NE1         N/A
CADDO LAKE       N/A     73  72  94 N2          N/A
GILMER           N/A     72  68  88 E3          N/A
HENDERSON        N/A     73  68  83 NE6         N/A
LUFKIN           N/A     77  72  83 MISG        N/A
N SABINE NF      N/A     72  70  94 MISG        N/A
$$

SUPPLEMENTAL OBSERVATIONS ARE A COLLECTION OF AUTOMATED INSTRUMENTS
THAT ARE MAINTAINED BY A VARIETY OF FEDERAL AND STATE AGENCIES.
CERTAIN ELEMENTS...SUCH AS HUMIDITY VALUES AND SUSTAINED WIND
SPEEDS...MAY BE APPROXIMATED.